Find Tianhui-5 2-01

NORAD ID: 60211 Int'l Des: 2024-126 Owner: GCDX Country: CN operational
LEOCIRCULARRETROGRADESSO

Current View

Loading 3D Globe...

About Tianhui-5 2-01

Description loading...

Upcoming Passes

Passes for default location (London). Set your location on the main map for personalized predictions.

Altitude History

Loading altitude history...

Two-Line Element Set

1 60211U 24126A 26149.46719333 .00000499 00000-0 60871-4 0 9991
2 60211 97.8207 157.2856 0001548 89.8899 270.2495 14.87578561103104
Epoch: May 29, 2026 • Age: 15 hours

Current Status

Altitude 608.6 km
Velocity 7.55 km/s
Sub-Earth Point -0.22°S, 52.03°E
Launch Date Jul 4, 2024
Age 1.9 years
Type other

Technical Details

Classification Payload
Mass 1000.00 kg
Dry Mass 1000.00 kg
Total Mass 1000.00 kg
Length 2.00 m
Diameter 2.00 m
Span 14.00 m
Shape Box + 2 Pan
Manufacturer DFHZ
Bus Type CAST-2000
Phase Status In Orbit
Owner/State GCDX/CN

Most Searched